Location: ?
(35.4554°N, 139.3092°E)
Time: 22:26:06
(UTC+00:00)

Cosmos 2173 Rocket - Pass Details

Date: 21 April 2021
Orbit: 944 x 1001 km, 83.0° (Epoch: 10 May)

Event Time Altitude Azimuth Distance (km) Brightness Sun altitude
Rises 18:30:49 0° 357° (N) 3,616 7.4 -17.9°
Reaches altitude 10° 18:33:21 10° 1° (N) 2,669 6.7 -17.5°
Maximum altitude 18:39:23 62° 82° (E) 1,056 4.4 -16.4°
Drops below altitude 10° 18:45:25 10° 163° (SSE) 2,673 6.2 -15.3°
Sets 18:47:56 0° 166° (SSE) 3,622 6.9 -14.9°
